CW1411 Weather Reports


Display with metric or nautical units.
time (UTC)temp
F
wind
direction
speed
MPH
gust
MPH
rain 1hr
in
rain 24hr
in
rain mn
in
humidity
%
barometer
mb
20171124214835 46 5 1.0 6.0 0.00 0.00 0.00 55 1010.9
20171124214324 44 238 1.0 3.0 0.00 0.00 0.00 54 1010.9
20171124213816 44 219 0.0 3.0 0.00 0.00 0.00 54 1010.8
20171124213302 44 189 1.0 5.0 0.00 0.00 0.00 54 1010.8
20171124212757 45 231 1.0 7.0 0.00 0.00 0.00 54 1010.8
20171124212253 45 213 1.0 7.0 0.00 0.00 0.00 54 1010.9
20171124211752 45 184 1.0 4.0 0.00 0.00 0.00 53 1010.9
20171124211248 45 148 1.0 5.0 0.00 0.00 0.00 53 1010.9
20171124210745 45 288 1.0 5.0 0.00 0.00 0.00 53 1010.9
20171124210739 45 140 1.0 5.0 0.00 0.00 0.00 53 1011.0
20171124205736 46 291 1.0 9.0 0.00 0.00 0.00 52 1011.0
20171124205234 46 161 1.0 9.0 0.00 0.00 0.00 52 1011.0
20171124204730 46 248 1.0 4.0 0.00 0.00 0.00 52 1011.0
20171124204229 46 207 1.0 4.0 0.00 0.00 0.00 51 1011.1
20171124203729 46 224 1.0 3.0 0.00 0.00 0.00 51 1011.1
20171124203230 47 144 1.0 7.0 0.00 0.00 0.00 51 1011.0
20171124202729 47 125 2.0 7.0 0.00 0.00 0.00 50 1011.1
20171124202228 47 240 1.0 7.0 0.00 0.00 0.00 50 1011.1
20171124201722 47 218 2.0 6.0 0.00 0.00 0.00 50 1011.2
20171124201222 47 123 2.0 6.0 0.00 0.00 0.00 49 1011.3
20171124200725 48 241 1.0 6.0 0.00 0.00 0.00 48 1011.4
20171124200721 47 148 2.0 6.0 0.00 0.00 0.00 48 1011.3
20171124195719 48 238 1.0 6.0 0.00 0.00 0.00 47 1011.5
20171124195216 48 270 1.0 6.0 0.00 0.00 0.00 47 1011.6
20171124194707 48 142 2.0 7.0 0.00 0.00 0.00 46 1011.7
20171124194212 48 132 2.0 11.0 0.00 0.00 0.00 46 1011.7
20171124194207 48 195 2.0 11.0 0.00 0.00 0.00 47 1011.7
20171124193207 49 236 1.0 6.0 0.00 0.00 0.00 46 1011.8
20171124192704 49 187 1.0 6.0 0.00 0.00 0.00 45 1011.9
20171124192207 49 231 1.0 5.0 0.00 0.00 0.00 45 1011.9
20171124191708 49 209 2.0 5.0 0.00 0.00 0.00 45 1012.0
20171124191702 49 146 1.0 5.0 0.00 0.00 0.00 46 1012.0
20171124190701 49 230 2.0 5.0 0.00 0.00 0.00 47 1012.1
20171124190156 49 284 2.0 6.0 0.00 0.00 0.00 46 1012.2
20171124190152 49 56 1.0 6.0 0.00 0.00 0.00 46 1012.1
20171124185151 49 144 2.0 6.0 0.00 0.00 0.00 46 1012.3
20171124184652 49 114 1.0 6.0 0.00 0.00 0.00 47 1012.4
20171124184153 49 157 2.0 5.0 0.00 0.00 0.00 49 1012.6
20171124184146 49 244 1.0 6.0 0.00 0.00 0.00 49 1012.4
20171124183645 49 247 1.0 4.0 0.00 0.00 0.00 50 1012.6
20171124183303 49 137 1.0 5.0 0.00 0.00 0.00 50 1012.7
20171124182144 49 233 1.0 3.0 0.00 0.00 0.00 52 1012.7
20171124181644 48 231 1.0 4.0 0.00 0.00 0.00 52 1012.8
20171124181144 48 200 1.0 4.0 0.00 0.00 0.00 52 1012.8
20171124180642 48 137 2.0 5.0 0.00 0.00 0.00 53 1012.9
20171124180145 48 246 1.0 5.0 0.00 0.00 0.00 53 1013.0
20171124180141 48 167 2.0 5.0 0.00 0.00 0.00 52 1012.9
20171124175140 47 207 1.0 6.0 0.00 0.00 0.00 53 1013.1
20171124174639 47 225 1.0 9.0 0.00 0.00 0.00 53 1013.1
20171124174138 47 315 2.0 11.0 0.00 0.00 0.00 54 1013.1
20171124173637 47 273 2.0 11.0 0.00 0.00 0.00 54 1013.1
20171124173139 46 189 2.0 5.0 0.00 0.00 0.00 54 1013.2
20171124172640 46 233 1.0 5.0 0.00 0.00 0.00 54 1013.3
20171124172140 45 190 2.0 6.0 0.00 0.00 0.00 57 1013.5
20171124172136 46 119 1.0 6.0 0.00 0.00 0.00 56 1013.4
20171124171134 45 138 2.0 5.0 0.00 0.00 0.00 57 1013.7
20171124170635 44 129 2.0 5.0 0.00 0.00 0.00 57 1013.8
20171124170135 44 109 2.0 5.0 0.00 0.00 0.00 58 1013.9
20171124165640 44 227 2.0 4.0 0.00 0.00 0.00 57 1014.0
20171124165135 44 119 1.0 4.0 0.00 0.00 0.00 58 1014.1
20171124164635 43 238 1.0 4.0 0.00 0.00 0.00 59 1014.2
20171124164134 43 254 1.0 4.0 0.00 0.00 0.00 59 1014.4
20171124163634 42 217 1.0 5.0 0.00 0.00 0.00 59 1014.6
20171124163127 42 147 1.0 4.0 0.00 0.00 0.00 60 1014.8
20171124163121 42 165 2.0 5.0 0.00 0.00 0.00 59 1014.7
20171124162114 42 140 1.0 7.0 0.00 0.00 0.00 60 1014.9
20171124161618 41 235 2.0 7.0 0.00 0.00 0.00 60 1014.9
20171124161610 41 115 1.0 4.0 0.00 0.00 0.00 61 1015.0
20171124160610 41 237 2.0 6.0 0.00 0.00 0.00 61 1015.1
20171124160110 41 105 2.0 6.0 0.00 0.00 0.00 61 1015.2
20171124155610 41 128 2.0 3.0 0.00 0.00 0.00 62 1015.3
20171124155109 40 142 1.0 5.0 0.00 0.00 0.00 62 1015.3
20171124154610 40 128 1.0 5.0 0.00 0.00 0.00 62 1015.5
20171124154106 40 227 1.0 4.0 0.00 0.00 0.00 63 1015.5
20171124153603 40 112 1.0 4.0 0.00 0.00 0.00 63 1015.6
20171124153104 40 223 1.0 4.0 0.00 0.00 0.00 63 1015.6
20171124152557 39 199 1.0 4.0 0.00 0.00 0.00 64 1015.7
20171124152056 39 146 1.0 5.0 0.00 0.00 0.00 64 1015.7
20171124151555 39 242 1.0 5.0 0.00 0.00 0.00 65 1015.8
20171124151055 38 151 2.0 5.0 0.00 0.00 0.00 65 1015.9
20171124150537 38 119 2.0 5.0 0.00 0.00 0.00 65 1015.9
20171124150038 38 107 2.0 6.0 0.00 0.00 0.00 66 1016.0
20171124145535 38 137 2.0 6.0 0.00 0.00 0.00 67 1015.9
20171124145032 38 123 1.0 4.0 0.00 0.00 0.00 67 1016.0
20171124144534 37 165 2.0 4.0 0.00 0.00 0.00 68 1016.0
20171124144032 37 108 2.0 4.0 0.00 0.00 0.00 68 1016.0
20171124143541 36 139 1.0 5.0 0.00 0.00 0.00 70 1016.1
20171124143532 37 138 1.0 4.0 0.00 0.00 0.00 69 1016.0
20171124143034 36 227 1.0 4.0 0.00 0.00 0.00 70 1016.1
20171124142530 35 131 1.0 5.0 0.00 0.00 0.00 71 1016.1
20171124141528 35 207 1.0 4.0 0.00 0.00 0.00 72 1016.2
20171124141026 35 130 2.0 4.0 0.00 0.00 0.00 73 1016.0
20171124140531 33 109 1.0 3.0 0.00 0.00 0.00 74 1015.9
20171124140525 34 157 1.0 4.0 0.00 0.00 0.00 74 1016.0
20171124135525 33 215 2.0 5.0 0.00 0.00 0.00 75 1016.0
20171124135023 33 116 2.0 5.0 0.00 0.00 0.00 75 1016.0
20171124134525 32 96 1.0 5.0 0.00 0.00 0.00 76 1016.1
20171124134022 32 130 1.0 5.0 0.00 0.00 0.00 76 1016.1
20171124133520 31 138 1.0 3.0 0.00 0.00 0.00 76 1016.1
20171124133022 31 123 1.0 2.0 0.00 0.00 0.00 76 1016.1
20171124133015 31 140 1.0 2.0 0.00 0.00 0.00 76 1016.1
20171124132010 0 0.0 0.0 0.00 0.00 0.00 1016.0
20171124131946 0 0.0 0.0 0.00 0.00 0.00 1015.9
20171124130938 0 0.0 0.0 0.00 0.00 0.00 1015.8
20171124130429 0 0.0 0.0 0.00 0.00 0.00 1015.8
20171124125836 0 0.0 0.0 0.00 0.00 0.00 1015.8
20171124125242 0 0.0 0.0 0.00 0.00 0.00 1015.7
20171124124741 0 0.0 0.0 0.00 0.00 0.00 1015.8
20171124124228 0 0.0 0.0 0.00 0.00 0.00 1015.8
20171124123634 0 0.0 0.0 0.00 0.00 0.00 1015.8
20171124123040 0 0.0 0.0 0.00 0.00 0.00 1015.8
20171124122444 0 0.0 0.0 0.00 0.00 0.00 1015.8
20171124121946 0 0.0 0.0 0.00 0.00 0.00 1015.8
20171124121942 0 0.0 0.0 0.00 0.00 0.00 1015.8
20171124120931 0 0.0 0.0 0.00 0.00 0.00 1015.7
20171124120415 0 0.0 0.0 0.00 0.00 0.00 1015.6
20171124115839 0 0.0 0.0 0.00 0.00 0.00 1015.6
20171124115749 0 0.0 0.0 0.00 0.00 0.00 1015.6
20171124115241 0 0.0 0.0 0.00 0.00 0.00 1015.5
20171124114139 0 0.0 0.0 0.00 0.00 0.00 1015.5
20171124113636 0 0.0 0.0 0.00 0.00 0.00 1015.5
20171124113126 0 0.0 0.0 0.00 0.00 0.00 1015.4
20171124112543 0 0.0 0.0 0.00 0.00 0.00 1015.4
20171124112513 0 0.0 0.0 0.00 0.00 0.00 1015.4
20171124111937 0 0.0 0.0 0.00 0.00 0.00 1015.4
20171124110846 0 0.0 0.0 0.00 0.00 0.00 1015.3
20171124110339 0 0.0 0.0 0.00 0.00 0.00 1015.2
20171124105832 0 0.0 0.0 0.00 0.00 0.00 1015.3
20171124105241 0 0.0 0.0 0.00 0.00 0.00 1015.3
20171124104737 0 0.0 0.0 0.00 0.00 0.00 1015.3
20171124104144 0 0.0 0.0 0.00 0.00 0.00 1015.3
20171124104138 0 0.0 0.0 0.00 0.00 0.00 1015.3
20171124103138 0 0.0 0.0 0.00 0.00 0.00 1015.3
20171124102542 0 0.0 0.0 0.00 0.00 0.00 1015.4
20171124102043 32 0.0 0.0 0.00 0.00 0.00 73 1015.3
20171124101542 32 5 0.0 1.0 0.00 0.00 0.00 73 1015.2
20171124101505 32 5 0.0 1.0 0.00 0.00 0.00 73 1015.2
20171124100506 33 5 0.0 0.0 0.00 0.00 0.00 74 1015.2
20171124100502 32 5 0.0 1.0 0.00 0.00 0.00 73 1015.3
20171124095456 33 5 0.0 0.0 0.00 0.00 0.00 74 1015.3
20171124094946 33 5 0.0 0.0 0.00 0.00 0.00 74 1015.3
20171124094436 33 5 0.0 0.0 0.00 0.00 0.00 74 1015.3
20171124093923 33 5 0.0 2.0 0.00 0.00 0.00 74 1015.2
20171124093423 33 5 0.0 2.0 0.00 0.00 0.00 74 1015.2
20171124093416 33 5 0.0 0.0 0.00 0.00 0.00 74 1015.2
20171124093025 33 5 0.0 0.0 0.00 0.00 0.00 74 1015.1
20171124091915 33 5 0.0 2.0 0.00 0.00 0.00 74 1015.1
20171124091346 33 5 0.0 2.0 0.00 0.00 0.00 74 1015.1
20171124090848 33 5 0.0 0.0 0.00 0.00 0.00 73 1015.1
20171124090344 33 5 0.0 0.0 0.00 0.00 0.00 74 1015.1
20171124085836 33 5 0.0 0.0 0.00 0.00 0.00 74 1015.0
20171124085334 33 5 0.0 2.0 0.00 0.00 0.00 74 1015.0
20171124084800 33 5 0.0 2.0 0.00 0.00 0.00 74 1015.0
20171124084259 33 5 0.0 1.0 0.00 0.00 0.00 74 1015.0
20171124083800 33 5 0.0 0.0 0.00 0.00 0.00 74 1015.0
20171124083243 33 5 0.0 0.0 0.00 0.00 0.00 74 1015.1
20171124082731 33 5 0.0 0.0 0.00 0.00 0.00 74 1015.0
20171124082227 33 5 0.0 1.0 0.00 0.00 0.00 74 1015.0
20171124081709 33 5 0.0 1.0 0.00 0.00 0.00 74 1015.0
20171124081658 33 5 0.0 0.0 0.00 0.00 0.00 74 1015.1
20171124080642 33 5 0.0 0.0 0.00 0.00 0.00 75 1015.1
20171124080132 33 5 0.0 0.0 0.00 0.00 0.00 75 1015.1
20171124080123 33 5 0.0 0.0 0.00 0.00 0.00 75 1015.2
20171124075108 33 5 0.0 0.0 0.00 0.00 0.00 75 1015.1
20171124074604 33 5 0.0 0.0 0.00 0.00 0.00 76 1015.2
20171124074050 33 5 0.0 0.0 0.00 0.00 0.00 76 1015.3
20171124074047 33 5 0.0 0.0 0.00 0.00 0.00 76 1015.2
20171124073042 33 5 0.0 0.0 0.00 0.00 0.00 76 1015.4
20171124072545 33 5 0.0 0.0 0.00 0.00 0.00 77 1015.4
20171124072542 33 5 0.0 0.0 0.00 0.00 0.00 77 1015.4
20171124071530 33 5 0.0 0.0 0.00 0.00 0.00 77 1015.3
20171124071522 33 5 0.0 0.0 0.00 0.00 0.00 78 1015.3
20171124070514 33 5 0.0 0.0 0.00 0.00 0.00 78 1015.3
20171124070008 33 5 0.0 0.0 0.00 0.00 0.00 78 1015.2
20171124065453 33 5 0.0 0.0 0.00 0.00 0.00 78 1015.3
20171124064948 33 5 0.0 0.0 0.00 0.00 0.00 79 1015.3
20171124064430 33 5 0.0 0.0 0.00 0.00 0.00 79 1015.3
20171124063925 33 5 0.0 0.0 0.00 0.00 0.00 79 1015.3
20171124063402 33 5 0.0 0.0 0.00 0.00 0.00 79 1015.3
20171124062902 33 5 0.0 0.0 0.00 0.00 0.00 79 1015.3
20171124062333 33 5 0.0 0.0 0.00 0.00 0.00 79 1015.3
20171124061827 33 5 0.0 0.0 0.00 0.00 0.00 79 1015.4
20171124061814 33 5 0.0 0.0 0.00 0.00 0.00 79 1015.2
20171124060810 33 5 0.0 0.0 0.00 0.00 0.00 78 1015.2
20171124060243 33 5 0.0 0.0 0.00 0.00 0.00 78 1015.2
20171124055739 32 5 0.0 0.0 0.00 0.00 0.00 78 1015.2
20171124055213 32 5 0.0 0.0 0.00 0.00 0.00 78 1015.1
20171124054716 32 5 0.0 0.0 0.00 0.00 0.00 78 1015.1
20171124054139 32 5 0.0 0.0 0.00 0.00 0.00 78 1015.1
20171124053641 32 5 0.0 0.0 0.00 0.00 0.00 78 1015.1
20171124053127 32 5 0.0 0.0 0.00 0.00 0.00 78 1015.2
20171124052627 32 5 0.0 0.0 0.00 0.00 0.00 78 1015.2
20171124052122 32 5 0.0 0.0 0.00 0.00 0.00 78 1015.3
20171124051603 31 5 0.0 0.0 0.00 0.00 0.00 79 1015.3
20171124051050 31 5 0.0 0.0 0.00 0.00 0.00 79 1015.3
20171124050540 31 5 0.0 0.0 0.00 0.00 0.00 80 1015.4
20171124050033 31 5 0.0 1.0 0.00 0.00 0.00 80 1015.4
20171124045533 31 5 0.0 1.0 0.00 0.00 0.00 80 1015.4
20171124045035 31 5 0.0 0.0 0.00 0.00 0.00 81 1015.2
20171124045031 31 5 0.0 0.0 0.00 0.00 0.00 81 1015.2
20171124044006 31 5 0.0 0.0 0.00 0.00 0.00 81 1015.2
20171124043440 31 5 0.0 0.0 0.00 0.00 0.00 81 1015.3
20171124042940 31 5 0.0 0.0 0.00 0.00 0.00 82 1015.2
20171124042416 31 5 0.0 0.0 0.00 0.00 0.00 81 1015.2
20171124041913 31 5 0.0 0.0 0.00 0.00 0.00 82 1015.2
20171124041339 31 5 0.0 0.0 0.00 0.00 0.00 81 1015.2
20171124041305 31 5 0.0 0.0 0.00 0.00 0.00 81 1015.3
20171124040256 31 5 0.0 0.0 0.00 0.00 0.00 81 1015.2
20171124035738 31 5 0.0 0.0 0.00 0.00 0.00 81 1015.3
20171124035733 31 5 0.0 0.0 0.00 0.00 0.00 81 1015.3
20171124034720 31 5 0.0 0.0 0.00 0.00 0.00 81 1015.3
20171124034210 31 5 0.0 0.0 0.00 0.00 0.00 81 1015.3
20171124033650 31 5 0.0 0.0 0.00 0.00 0.00 81 1015.3
20171124033149 31 5 0.0 0.0 0.00 0.00 0.00 81 1015.3
20171124032645 31 5 0.0 0.0 0.00 0.00 0.00 81 1015.3
20171124032139 31 5 0.0 0.0 0.00 0.00 0.00 81 1015.3
20171124031627 31 5 0.0 0.0 0.00 0.00 0.00 81 1015.3
20171124031122 31 5 0.0 0.0 0.00 0.00 0.00 81 1015.4
20171124031052 31 5 0.0 0.0 0.00 0.00 0.00 81 1015.3
20171124030042 31 5 0.0 0.0 0.00 0.00 0.00 81 1015.3
20171124025537 31 5 0.0 0.0 0.00 0.00 0.00 81 1015.4
20171124025022 31 5 0.0 0.0 0.00 0.00 0.00 81 1015.4
20171124024509 31 5 0.0 0.0 0.00 0.00 0.00 81 1015.4
20171124024003 31 5 0.0 0.0 0.00 0.00 0.00 81 1015.4
20171124023441 31 5 0.0 0.0 0.00 0.00 0.00 81 1015.4
20171124022927 31 5 0.0 0.0 0.00 0.00 0.00 81 1015.4
20171124022423 31 5 0.0 0.0 0.00 0.00 0.00 81 1015.4
20171124021909 31 5 0.0 0.0 0.00 0.00 0.00 81 1015.5
20171124021359 31 5 0.0 0.0 0.00 0.00 0.00 81 1015.5
20171124020848 31 5 0.0 0.0 0.00 0.00 0.00 81 1015.5
20171124020351 31 5 0.0 0.0 0.00 0.00 0.00 81 1015.3
20171124015846 31 5 0.0 0.0 0.00 0.00 0.00 81 1015.4
20171124015339 31 5 0.0 0.0 0.00 0.00 0.00 81 1015.5
20171124014824 31 5 0.0 0.0 0.00 0.00 0.00 81 1015.5
20171124014320 31 5 0.0 0.0 0.00 0.00 0.00 81 1015.7
20171124014245 31 5 0.0 0.0 0.00 0.00 0.00 81 1015.7
20171124013239 31 5 0.0 0.0 0.00 0.00 0.00 81 1015.8
20171124012740 31 5 0.0 0.0 0.00 0.00 0.00 81 1015.8
20171124012239 31 5 0.0 0.0 0.00 0.00 0.00 80 1015.9
20171124011740 31 5 0.0 0.0 0.00 0.00 0.00 80 1015.8
20171124011212 31 5 0.0 0.0 0.00 0.00 0.00 80 1015.8
20171124010639 31 5 0.0 0.0 0.00 0.00 0.00 80 1015.8
20171124010140 31 5 0.0 0.0 0.00 0.00 0.00 80 1015.7
20171124005639 31 5 0.0 0.0 0.00 0.00 0.00 80 1015.5
20171124005140 31 5 0.0 0.0 0.00 0.00 0.00 80 1015.5
20171124005130 30 5 0.0 0.0 0.00 0.00 0.00 80 1015.5
20171124004134 30 5 0.0 0.0 0.00 0.00 0.00 79 1015.5
20171124004128 30 5 0.0 0.0 0.00 0.00 0.00 80 1015.5
20171124004028 30 5 0.0 0.0 0.00 0.00 0.00 79 1015.5
20171124002459 30 5 0.0 0.0 0.00 0.00 0.00 79 1015.6
20171124001944 30 5 0.0 0.0 0.00 0.00 0.00 79 1015.8
20171124001429 30 5 0.0 0.0 0.00 0.00 0.00 78 1015.5
20171124000910 30 5 0.0 0.0 0.00 0.00 0.00 78 1015.5
20171124000410 30 5 0.0 0.0 0.00 0.00 0.00 77 1015.4
20171124000406 30 5 0.0 0.0 0.00 0.00 0.00 77 1015.5
20171123235344 29 5 0.0 0.0 0.00 0.00 0.00 76 1015.2
20171123234842 29 5 0.0 0.0 0.00 0.00 0.00 75 1015.5
20171123234338 29 5 0.0 0.0 0.00 0.00 0.00 74 1015.5
20171123233829 29 5 0.0 0.0 0.00 0.00 0.00 73 1015.5
20171123233244 30 5 0.0 0.0 0.00 0.00 0.00 73 1015.4
20171123232740 30 5 0.0 0.0 0.00 0.00 0.00 73 1015.6
20171123232241 30 5 0.0 0.0 0.00 0.00 0.00 72 1015.6
20171123231736 30 5 0.0 0.0 0.00 0.00 0.00 71 1015.5
20171123231214 30 5 0.0 0.0 0.00 0.00 0.00 71 1015.6
20171123230648 31 5 0.0 0.0 0.00 0.00 0.00 71 1015.5
20171123230144 31 5 0.0 0.0 0.00 0.00 0.00 71 1015.4
20171123225644 31 5 0.0 0.0 0.00 0.00 0.00 70 1015.5
20171123225136 31 5 0.0 0.0 0.00 0.00 0.00 70 1015.4
20171123224636 32 5 0.0 0.0 0.00 0.00 0.00 69 1015.5
20171123224134 32 5 0.0 0.0 0.00 0.00 0.00 69 1015.5
20171123223634 32 5 0.0 0.0 0.00 0.00 0.00 68 1015.6
20171123223134 33 5 0.0 0.0 0.00 0.00 0.00 68 1015.5
20171123222634 33 5 0.0 0.0 0.00 0.00 0.00 67 1015.7
20171123222118 33 5 0.0 0.0 0.00 0.00 0.00 66 1015.8
20171123221618 34 5 0.0 0.0 0.00 0.00 0.00 66 1015.8
20171123221109 34 5 0.0 0.0 0.00 0.00 0.00 66 1015.8
20171123220558 35 5 0.0 0.0 0.00 0.00 0.00 66 1015.6
20171123220054 35 5 0.0 0.0 0.00 0.00 0.00 65 1015.6
20171123215554 35 5 0.0 0.0 0.00 0.00 0.00 65 1015.5